When you browse on this site, cookies collect data to enhance your experience and personalize the content and advertising you see.
Visit our Privacy Policy to learn more. By continuing to use the site, you agree to this use of cookies and data.
  • In Germany
  • List of Countries
  • For 7 days
  • Water Temperature
  • Satellite Maps
  • Weather Map
  • Weather Widgets
  • user-avatar
    Login

    Hourly Weather Kipungo

    Today, 21 July, Sunday

    Time Temperature Precipitation Wind Pressure Humidity
    00:00 +12°C° 0 mm 1 mps 654 mmHg 35%
    01:00 +11°C° 0 mm 1 mps 653 mmHg 40%
    02:00 +10°C° 0 mm 1 mps 653 mmHg 44%
    03:00 +8°C° 0 mm 0 mps 653 mmHg 48%
    04:00 +8°C° 0 mm 0 mps 653 mmHg 52%
    05:00 +8°C° 0 mm 0 mps 653 mmHg 50%
    06:00 +9°C° 0 mm 1 mps 654 mmHg 48%
    07:00 +10°C° 0 mm 1 mps 654 mmHg 46%
    08:00 +14°C° 0 mm 1 mps 655 mmHg 35%
    09:00 +19°C° 0 mm 2 mps 656 mmHg 25%
    10:00 +25°C° 0 mm 2 mps 658 mmHg 14%
    11:00 +27°C° 0 mm 2 mps 657 mmHg 13%
    12:00 +29°C° 0 mm 2 mps 657 mmHg 11%
    13:00 +31°C° 0 mm 2 mps 657 mmHg 9%
    14:00 +31°C° 0 mm 2 mps 656 mmHg 8%
    15:00 +31°C° 0 mm 2 mps 656 mmHg 8%
    16:00 +31°C° 0 mm 1 mps 655 mmHg 8%
    17:00 +28°C° 0 mm 1 mps 655 mmHg 10%
    18:00 +24°C° 0 mm 1 mps 655 mmHg 13%
    19:00 +21°C° 0 mm 1 mps 654 mmHg 15%
    20:00 +19°C° 0 mm 1 mps 654 mmHg 22%
    21:00 +16°C° 0 mm 2 mps 655 mmHg 28%
    22:00 +14°C° 0 mm 2 mps 655 mmHg 35%
    23:00 +13°C° 0 mm 1 mps 654 mmHg 50%

    Tomorrow, 22 July, Monday

    Time Temperature Precipitation Wind Pressure Humidity
    00:00 +12°C° 0 mm 1 mps 653 mmHg 64%
    01:00 +11°C° 0 mm 1 mps 653 mmHg 79%
    02:00 +11°C° 0 mm 1 mps 653 mmHg 81%
    03:00 +10°C° 0 mm 1 mps 652 mmHg 83%
    04:00 +9°C° 0 mm 0 mps 652 mmHg 84%
    05:00 +9°C° 0 mm 0 mps 653 mmHg 82%
    06:00 +9°C° 0 mm 0 mps 653 mmHg 80%
    07:00 +9°C° 0 mm 0 mps 653 mmHg 78%
    08:00 +15°C° 0 mm 1 mps 655 mmHg 58%
    09:00 +21°C° 0 mm 1 mps 656 mmHg 38%
    10:00 +26°C° 0 mm 2 mps 657 mmHg 19%
    11:00 +28°C° 0 mm 2 mps 657 mmHg 15%
    12:00 +30°C° 0 mm 2 mps 656 mmHg 12%
    13:00 +33°C° 0 mm 3 mps 656 mmHg 9%
    14:00 +32°C° 0 mm 2 mps 655 mmHg 9%
    15:00 +32°C° 0 mm 2 mps 655 mmHg 9%
    16:00 +32°C° 0 mm 2 mps 654 mmHg 9%
    17:00 +28°C° 0 mm 2 mps 654 mmHg 11%
    18:00 +25°C° 0 mm 1 mps 653 mmHg 14%
    19:00 +21°C° 0 mm 1 mps 653 mmHg 17%
    20:00 +20°C° 0 mm 1 mps 653 mmHg 21%
    21:00 +17°C° 0 mm 2 mps 653 mmHg 25%
    22:00 +15°C° 0 mm 2 mps 653 mmHg 30%
    23:00 +15°C° 0 mm 2 mps 653 mmHg 38%

    Day after tomorrow, 23 July, Tuesday

    Time Temperature Precipitation Wind Pressure Humidity
    00:00 +14°C° 0 mm 2 mps 653 mmHg 46%
    01:00 +13°C° 0 mm 2 mps 652 mmHg 54%
    02:00 +12°C° 0 mm 1 mps 652 mmHg 58%
    03:00 +11°C° 0 mm 1 mps 652 mmHg 62%
    04:00 +9°C° 0 mm 0 mps 652 mmHg 67%
    05:00 +9°C° 0 mm 0 mps 652 mmHg 66%
    06:00 +9°C° 0 mm 0 mps 652 mmHg 65%
    07:00 +9°C° 0 mm 0 mps 653 mmHg 65%
    08:00 +15°C° 0 mm 0 mps 654 mmHg 49%
    09:00 +21°C° 0 mm 0 mps 656 mmHg 34%
    10:00 +28°C° 0 mm 1 mps 657 mmHg 18%
    11:00 +30°C° 0 mm 1 mps 657 mmHg 15%
    12:00 +32°C° 0 mm 1 mps 656 mmHg 12%
    13:00 +34°C° 0 mm 1 mps 656 mmHg 9%
    14:00 +35°C° 0 mm 2 mps 655 mmHg 9%
    15:00 +34°C° 0 mm 2 mps 655 mmHg 9%
    16:00 +34°C° 0 mm 2 mps 654 mmHg 9%
    17:00 +29°C° 0 mm 2 mps 654 mmHg 14%
    18:00 +25°C° 0 mm 2 mps 653 mmHg 18%
    19:00 +20°C° 0 mm 2 mps 653 mmHg 22%
    20:00 +19°C° 0 mm 2 mps 653 mmHg 26%
    21:00 +17°C° 0 mm 2 mps 653 mmHg 30%
    22:00 +16°C° 0 mm 3 mps 653 mmHg 34%
    23:00 +15°C° 0 mm 2 mps 653 mmHg 37%

    24 July, Wednesday

    Time Temperature Precipitation Wind Pressure Humidity
    00:00 +14°C° 0 mm 1 mps 652 mmHg 40%
    01:00 +13°C° 0 mm 1 mps 652 mmHg 44%
    02:00 +11°C° 0 mm 0 mps 651 mmHg 46%
    03:00 +11°C° 0 mm 0 mps 651 mmHg 48%
    04:00 +10°C° 0 mm 0 mps 651 mmHg 49%
    05:00 +10°C° 0 mm 0 mps 651 mmHg 49%
    06:00 +10°C° 0 mm 0 mps 652 mmHg 49%
    07:00 +11°C° 0 mm 0 mps 652 mmHg 49%
    08:00 +16°C° 0 mm 0 mps 654 mmHg 38%
    09:00 +22°C° 0 mm 0 mps 655 mmHg 27%
    10:00 +28°C° 0 mm 0 mps 657 mmHg 16%
    11:00 +30°C° 0 mm 0 mps 656 mmHg 13%
    12:00 +34°C° 0 mm 1 mps 656 mmHg 11%
    13:00 +36°C° 0 mm 1 mps 656 mmHg 9%
    14:00 +35°C° 0 mm 1 mps 655 mmHg 9%
    15:00 +34°C° 0 mm 1 mps 654 mmHg 9%
    16:00 +33°C° 0 mm 1 mps 654 mmHg 9%
    17:00 +30°C° 0 mm 1 mps 653 mmHg 12%
    18:00 +26°C° 0 mm 1 mps 653 mmHg 15%
    19:00 +23°C° 0 mm 1 mps 653 mmHg 18%
    20:00 +20°C° 0 mm 2 mps 653 mmHg 21%
    21:00 +19°C° 0 mm 2 mps 653 mmHg 24%
    22:00 +17°C° 0 mm 2 mps 654 mmHg 26%
    23:00 +16°C° 0 mm 2 mps 653 mmHg 30%

    25 July, Thursday

    Time Temperature Precipitation Wind Pressure Humidity
    00:00 +15°C° 0 mm 1 mps 653 mmHg 33%
    01:00 +14°C° 0 mm 1 mps 653 mmHg 37%
    02:00 +14°C° 0 mm 1 mps 653 mmHg 38%
    03:00 +13°C° 0 mm 1 mps 652 mmHg 40%
    04:00 +13°C° 0 mm 1 mps 652 mmHg 41%
    05:00 +13°C° 0 mm 1 mps 653 mmHg 41%
    06:00 +12°C° 0 mm 0 mps 653 mmHg 42%
    07:00 +12°C° 0 mm 0 mps 654 mmHg 42%
    08:00 +17°C° 0 mm 0 mps 655 mmHg 33%
    09:00 +24°C° 0 mm 1 mps 656 mmHg 25%
    10:00 +29°C° 0 mm 1 mps 657 mmHg 16%
    11:00 +30°C° 0 mm 1 mps 657 mmHg 14%
    12:00 +32°C° 0 mm 2 mps 657 mmHg 12%
    13:00 +35°C° 0 mm 2 mps 656 mmHg 10%
    14:00 +35°C° 0 mm 2 mps 656 mmHg 10%
    15:00 +34°C° 0 mm 1 mps 656 mmHg 9%
    16:00 +34°C° 0 mm 1 mps 655 mmHg 9%
    17:00 +30°C° 0 mm 1 mps 655 mmHg 12%
    18:00 +27°C° 0 mm 1 mps 655 mmHg 14%
    19:00 +24°C° 0 mm 2 mps 654 mmHg 17%
    20:00 +20°C° 0 mm 2 mps 654 mmHg 21%
    21:00 +18°C° 0 mm 2 mps 654 mmHg 26%
    22:00 +16°C° 0 mm 2 mps 654 mmHg 31%
    23:00 +15°C° 0 mm 2 mps 654 mmHg 37%

    26 July, Friday

    Time Temperature Precipitation Wind Pressure Humidity
    00:00 +14°C° 0 mm 1 mps 653 mmHg 43%
    01:00 +13°C° 0 mm 1 mps 653 mmHg 49%
    02:00 +13°C° 0 mm 1 mps 653 mmHg 50%
    03:00 +13°C° 0 mm 1 mps 653 mmHg 51%
    04:00 +12°C° 0 mm 1 mps 653 mmHg 52%
    05:00 +12°C° 0 mm 1 mps 653 mmHg 49%
    06:00 +12°C° 0 mm 1 mps 654 mmHg 46%
    07:00 +12°C° 0 mm 1 mps 654 mmHg 43%
    08:00 +16°C° 0 mm 2 mps 655 mmHg 32%
    09:00 +21°C° 0 mm 3 mps 656 mmHg 22%
    10:00 +27°C° 0 mm 4 mps 657 mmHg 11%
    11:00 +29°C° 0 mm 4 mps 656 mmHg 10%
    12:00 +31°C° 0 mm 3 mps 656 mmHg 9%
    13:00 +34°C° 0 mm 3 mps 656 mmHg 7%
    14:00 +34°C° 0 mm 3 mps 655 mmHg 7%
    15:00 +34°C° 0 mm 3 mps 655 mmHg 7%
    16:00 +34°C° 0 mm 3 mps 654 mmHg 7%
    17:00 +29°C° 0 mm 3 mps 654 mmHg 9%
    18:00 +26°C° 0 mm 2 mps 654 mmHg 11%
    19:00 +23°C° 0 mm 2 mps 653 mmHg 13%
    20:00 +20°C° 0 mm 2 mps 653 mmHg 14%
    21:00 +19°C° 0 mm 2 mps 654 mmHg 15%
    22:00 +18°C° 0 mm 2 mps 654 mmHg 16%
    23:00 +16°C° 0 mm 1 mps 653 mmHg 18%
    Show more